Preview of NWS' New Version of Forecast
This preview is not operational and should not be used for support decisions.

Regional Weather Roundup (RWR)

Issued by National Weather Service (NWS)

                            
000
ASUS45 KBOU 200710
RWRCO 

WEATHER ROUNDUP FOR COLORADO
NATIONAL WEATHER SERVICE DENVER/BOULDER CO
100 AM MDT THU JUN 20 2019

NOTE: "FAIR" INDICATES FEW OR NO CLOUDS BELOW 12000 FEET WITH NO
SIGNIFICANT WEATHER AND/OR OBSTRUCTIONS TO VISIBILITY.

COZ001>005-013-030-031-200800-
...NORTHWEST COLORADO...
  
CITY           SKY/WX    TMP DP  RH WIND       PRES   REMARKS
CRAIG          MOCLDY    56  47  71 SE5       29.93F                  
HAYDEN         CLOUDY    58  47  66 E5        29.96F                  
MEEKER         FAIR      51  44  77 NE5       29.96F                  
RANGELY        FAIR      62  41  45 CALM      29.88R                  
RABBIT EARS PA NOT AVBL                                               
STEAMBOAT SPGS MOCLDY    53  50  89 SW5       30.00R                  
WALDEN         MOCLDY    50  36  57 CALM      30.05F                  
$$

COZ006>008-011-200800-
...WEST CENTRAL VALLEYS...
  
CITY           SKY/WX    TMP DP  RH WIND       PRES   REMARKS
GRAND JUNCTION FAIR      67  38  34 E8        29.85S                  
MONTROSE       FAIR      61  40  45 E9        29.98S                  
EAGLE          FAIR      52  43  71 E7        30.01S                  
RIFLE          FAIR      56  48  74 CALM      29.91F                  
DELTA          FAIR      64  37  38 NE7       29.92F                  
NUCLA          FAIR      63  36  36 E9        30.01S                  
$$

COZ017>023-064>068-200800-
...SOUTHWEST COLORADO...
  
CITY           SKY/WX    TMP DP  RH WIND       PRES   REMARKS
DURANGO        FAIR      50  36  58 N3        30.07S                  
CORTEZ         FAIR      54  40  59 NE9       30.01F                  
PAGOSA SPRINGS FAIR      50  35  56 CALM      30.15F                  
TELLURIDE      CLOUDY    52  37  58 SE5       30.25F                  
WOLF CREEK PAS FAIR      41  30  65 SW9       30.46F                  
$$

COZ009-010-012-014-032>034-037-058>063-200800-
...CENTRAL COLORADO...
  
CITY           SKY/WX    TMP DP  RH WIND       PRES   REMARKS
ASPEN          FAIR      51  36  56 S7        30.07F                  
BUENA VISTA    FAIR      52  32  46 CALM      30.08S                  
COPPER MTN     FAIR      46  30  53 W26G39    30.30F                  
BERTHOUD PASS  FAIR      39  32  75 W43G58    30.28F                  
COTTONWOOD PAS FAIR      55  28  35 NW7G22    30.19F                  
GUNNISON       FAIR      49  39  68 NE5       30.12S                  
GRANBY         CLOUDY    52  41  68 CALM      30.07S                  
KREMMLING      FAIR      48  41  76 S3        30.02S                  
LEADVILLE      FAIR      47  31  53 E7        30.18F                  
MONARCH PASS   FAIR      41  32  70 MISG      30.45F                  
SALIDA         FAIR      60  34  38 SW7       30.13S                  
SUNLIGHT       FAIR      43  30  61 SW13G29   30.27F                  
WILKERSON PASS FAIR      45  28  53 SW17G25   30.28F                  
$$

COZ069>075-200800-
...SAN LUIS VALLEY/SANGRE DE CRISTO MOUNTAINS...
  
CITY           SKY/WX    TMP DP  RH WIND       PRES   REMARKS
ALAMOSA        FAIR      54  36  50 SW10      30.10F                  
DEL NORTE      FAIR      51  32  48 W9        30.14F                  
LA VETA PASS   NOT AVBL                                               
SAGUACHE       FAIR      46  32  57 CALM      30.12F                  
$$

COZ035-036-038>040-200800-
...NORTHERN COLORADO FRONT RANGE...
  
CITY           SKY/WX    TMP DP  RH WIND       PRES   REMARKS
DENVER INTL AP MOCLDY    64  45  49 SW8       29.82S                  
AURORA         MOCLDY    65  40  39 S10       29.85S                  
FRONT RANGE AP FAIR      72  40  31 SW15      29.85S                  
ERIE MUNI ARPT FAIR      69  38  32 W3        29.87R                  
BOULDER MUN AP FAIR      70  37  30 W6        29.83R                  
CENTENNIAL     MOCLDY    67  38  34 S12       29.86F                  
BROOMFIELD     FAIR      68  37  32 NE9       29.86R                  
FORT COLLINS   FAIR      68  43  40 N9        29.83S                  
LONGMONT       FAIR      69  40  34 W5        29.85R                  
$$

COZ041-046-047-076>085-087-088-200800-
...PIKES PEAK/PALMER DIVIDE AND SOUTHERN FOOTHILLS...
  
CITY           SKY/WX    TMP DP  RH WIND       PRES   REMARKS
COLO. SPRINGS  MOCLDY    54  45  71 NE10      29.94F                  
A. F. ACADEMY  FAIR      52  44  76 N5        29.94F                  
SCHRIEVER AFB  NOT AVBL                                               
CHEYENNE MTN   NOT AVBL                                               
ELLICOTT         N/A    N/A N/A N/A S10       29.91F                  
FALCON         FAIR      54  42  63 CALM      29.99F                  
FORT CARSON    FAIR      57  45  64 N3        29.89F                  
LIMON          FAIR      57  49  74 SE3       29.87F                  
MONUMENT HILL  FAIR      52  41  66 S8        29.99F                  
CANON CITY     FAIR      64  36  34 CALM      29.88F                  
WALSENBURG     NOT AVBL                                               
TRINIDAD       FAIR      64  39  39 W13       29.94S                  
$$

COZ042>045-048>051-090-091-200800-
...NORTHEAST COLORADO...
  
CITY           SKY/WX    TMP DP  RH WIND       PRES   REMARKS
GREELEY ARPT   FAIR      64  54  69 N10       29.81R                  
AKRON          FAIR      65  51  60 SW14      29.78F                  
BURLINGTON     FAIR      60  54  80 S12       29.80F                  
WRAY           FAIR      63  52  67 MISG      29.74F                  
YUMA           FAIR      59  43  55 S12       29.75F                  
STERLING       FAIR      61  54  77 S8        29.73R                  
HOLYOKE        FAIR      63  54  72 S9        29.72F                  
FORT MORGAN    FAIR      60  49  68 SW5       29.78R                  
$$

COZ086-089-092>099-200800-
...SOUTHEAST COLORADO...
  
CITY           SKY/WX    TMP DP  RH WIND       PRES   REMARKS
PUEBLO         FAIR      61  51  70 N5        29.84S                  
LA JUNTA       FAIR      68  48  48 SW15      29.79F                  
LAMAR          FAIR      61  54  77 E3        29.77F                  
SPRINGFIELD      N/A     58  53  84 SW8       29.85F                  
$$